Regional Weather Roundup
Issued by NWS

Home | Current Version | Previous Version | Text Only | Print | Product List | Glossary On
Versions: 1 2 3 4 5 6 7 8 9 10 11 12 13 14 15 16 17 18 19 20 21 22 23 24 25 26 27 28 29 30 31 32 33 34 35 36 37 38 39 40 41 42 43 44 45 46 47 48 49 50
000
ASUS44 KJAN 260210
RWRMS

MISSISSIPPI HOURLY WEATHER ROUNDUP
NATIONAL WEATHER SERVICE JACKSON MS
900 PM CDT SAT OCT 25 2014

NOTE: "FAIR: INDICATES FEW OR NO CLOUDS BELOW 12,000 FEET WITH NO
SIGNIFICANT WEATHER AND/OR OBSTRUCTIONS TO VISIBILITY.

MSZ001>002-007>008-010>013-018>021-025>028-034>036-260300-
NORTHWEST MISSISSIPPI

CITY           SKY/WX    TMP DP  RH WIND       PRES   REMARKS
CLARKSDALE     FAIR      70  64  83 S5        30.05S
CLEVELAND      FAIR      68  64  88 CALM      30.05S
GREENWOOD      CLEAR     64  61  90 CALM      30.06R
GREENVILLE     CLEAR     68  63  84 SW6       30.05S
GRENADA          N/A    N/A N/A N/A MISG        N/A
OLIVE BRANCH   CLEAR     66  66 100 S5        30.05R
OXFORD         FAIR      61  59  94 CALM      30.07S FOG
TUNICA         CLEAR     64  61  88 CALM      30.05R
$$

MSZ003>006-009-014>017-022>024-029>033-037>039-260300-
NORTHEAST MISSISSIPPI

CITY           SKY/WX    TMP DP  RH WIND       PRES   REMARKS
COLUMBUS AFB   CLEAR     62  61  99 CALM      30.06S
CORINTH        FAIR      64  63  94 CALM      30.04S FOG
GOLDN TRIANGLE CLEAR     64  57  77 CALM      30.06S
STARKVILLE     FAIR      61  61 100 CALM      30.07R FOG
TUPELO         CLEAR     65  62  90 CALM      30.05S
$$

MSZ040-058-260300-
CENTRAL MISSISSIPPI

CITY           SKY/WX    TMP DP  RH WIND       PRES   REMARKS
JACKSON INTL   CLEAR     61  58  90 CALM      30.08S
JACKSON HAWKNS CLEAR     66  61  84 CALM      30.08S
MERIDIAN KEY   CLEAR     61  59  93 CALM      30.07S
MERIDIAN NAS   CLEAR     64  61  90 CALM      30.08R
RAYMOND        HAZE      61  55  82 MISG      30.09S VSB 1/4
VICKSBURG      CLEAR     61  58  90 CALM      30.08R
$$

MSZ059>079-260300-
SOUTH MISSISSIPPI

CITY           SKY/WX    TMP DP  RH WIND       PRES   REMARKS
BROOKHAVEN     FAIR      63  61  94 CALM      30.11S
COLUMBIA         N/A     61  61 100 MISG        N/A
HATTIESBURG    CLEAR     63  61  93 CALM      30.09R
MCCOMB         CLEAR     66  57  72 CALM      30.10R
NATCHEZ        CLEAR     63  57  82 S3        30.10S
PINE BELT      CLEAR     61  57  88 W5        30.10R
$$

MSZ080>082-260300-
COASTAL MISSISSIPPI

CITY           SKY/WX    TMP DP  RH WIND       PRES   REMARKS
BAY ST LOUIS   CLEAR     61  57  88 CALM      30.08S
BILOXI         CLEAR     67  62  85 W1        30.07S
PASCAGOULA     CLEAR     56  55  97 CALM      30.08R
GULFPORT       CLEAR     63  59  87 CALM      30.07S
$$



USA.gov is the U.S. government's official web portal to all federal, state and local government web resources and services.